Location: Wildlife_Club
(35.6000°N, 81.4330°W)
Time: 14:01:45
(UTC-04:00)

Daily predictions for brighter satellites

Satellite Brightness Start Highest point End
(mag) Time Altitude Azimuth Time Altitude Azimuth Time Altitude Azimuth
Cosmos 2219 3.3 20:17:20 10° NNW 20:22:56 65° ENE 20:28:29 10° SSE
Spot 2 Rocket 3.5 20:18:11 10° SSE 20:23:16 79° ENE 20:28:22 10° N
Cosmos 1656 Rocket 4.2 20:18:14 10° SSW 20:23:48 68° WNW 20:29:21 10° NNE
Resurs 01 Rocket 1.7 20:27:13 10° SSE 20:31:39 85° W 20:36:06 10° NNW
Cosmos 1934 Rocket 4.3 20:26:06 10° SSE 20:31:49 44° E 20:37:38 10° NNE
Cosmos 1400 Rocket 4.3 20:30:02 10° SSW 20:33:58 44° WNW 20:37:53 10° N
Cosmos 1315 Rocket 2.9 20:30:23 10° S 20:34:21 82° W 20:38:24 10° N
Meteor 2-4 Rocket 4.0 20:29:39 10° N 20:35:25 57° E 20:41:13 10° SSE
Cosmos 2278 4.2 20:32:35 10° S 20:37:46 38° ESE 20:42:59 10° NE
Cosmos 1697 Rocket 4.3 20:36:27 10° ESE 20:38:32 12° E 20:40:38 10° ENE
Tiangong 1 2.7 20:37:43 10° W 20:40:34 31° NNW 20:43:22 10° NE
DELTA 2 R/B (1) 4.1 20:37:23 10° W 20:42:52 57° N 20:48:21 10° ENE
Myojo/LAPS 4.3 20:44:36 10° SW 20:46:44 19° S 20:48:07 13° SE
USA 186 2.5 20:44:18 10° SE 20:47:10 32° ENE 20:49:56 10° N
H-2A R/B 3.1 20:45:14 10° SSE 20:48:55 47° ENE 20:52:41 10° N
OTV 4 1.1 20:46:55 10° WNW 20:49:48 49° N 20:52:22 12° ENE
CZ-4B DEB 2.8 20:47:06 10° SSE 20:50:22 90° ENE 20:53:39 10° NNW
Cosmos 2369 4.0 20:45:19 10° S 20:50:38 44° ESE 20:56:00 10° NE
ATLAS CENTAUR R/B 4.5 20:48:29 10° WSW 20:52:30 23° NW 20:56:27 10° N
Meteor 1-23 Rocket 4.2 20:46:51 10° N 20:52:30 75° E 20:58:11 10° SSE
Delta 2 Rocket 4.0 20:47:31 10° W 20:53:12 90° S 20:57:38 14° E
Cosmos 1544 Rocket 3.5 20:49:36 10° S 20:53:56 77° E 20:58:21 10° N
ATLAS 3B CENTAUR R/B 2.1 20:54:20 10° SSW 20:54:55 11° S 20:55:19 10° S
Iridium 4 Rocket 4.5 20:52:46 10° NNE 20:56:56 25° E 20:59:35 16° ESE
OAO 2 Rocket 3.6 20:55:09 10° SW 21:00:00 50° SSE 21:03:59 15° E
CZ-2D R/B 3.2 20:59:59 10° SSE 21:03:50 85° ENE 21:07:43 10° N
Cosmos 968 Rocket 4.1 20:59:37 10° NNW 21:04:38 56° WSW 21:09:36 10° S
Hubble Space Telescope 2.1 21:06:56 10° WSW 21:10:27 27° S 21:12:19 19° SSE
ERS-1 Rocket 3.6 21:07:32 19° SE 21:10:33 35° ENE 21:15:06 10° N
Cosmos 1821 Rocket 4.3 21:05:48 10° SSW 21:11:52 68° W 21:17:57 10° N
Cosmos 1605 Rocket 4.0 21:08:22 10° S 21:14:41 71° E 21:20:58 10° N
Cosmos 1346 Rocket 2.7 21:14:48 10° N 21:18:45 80° E 21:21:51 16° SSE
YAOGAN 11 4.2 21:26:25 26° SE 21:28:50 61° ENE 21:33:15 10° N
Cosmos 2227 Rocket 2.2 21:23:47 10° NNW 21:29:25 63° ENE 21:32:24 28° SE
ALOS 3.4 21:26:56 10° S 21:31:21 43° W 21:35:49 10° NNW
Cosmos 468 Rocket 4.4 21:29:33 24° SSE 21:31:54 38° E 21:36:37 10° NE
FENGYUN 3A 4.4 21:26:49 10° S 21:32:00 51° W 21:37:13 10° NNW
Cosmos 1500 3.5 21:34:20 42° E 21:34:20 42° E 21:37:44 10° NNE
BREEZE-M DEB (TANK) 4.3 21:17:32 10° SW 21:38:01 89° SE 21:42:56 11° ENE
Cosmos 1814 Rocket 4.5 21:37:53 35° SE 21:38:52 38° E 21:43:46 10° NE
Cosmos 1656 3.6 21:33:34 10° S 21:39:08 65° ESE 21:44:40 10° NNE
Cosmos 2082 3.6 21:36:25 10° NNW 21:42:03 75° ENE 21:44:32 34° SSE
Cosmos 2297 Rocket 2.3 21:39:41 10° NNW 21:45:16 60° ENE 21:47:09 40° SE
Cosmos 2123 Rocket 4.4 21:40:22 10° NNW 21:46:26 62° W 21:52:29 10° S
H-2A R/B 2.4 21:49:23 42° ENE 21:49:23 42° ENE 21:53:03 10° N
Lacrosse 5 3.6 21:46:38 10° NNW 21:50:19 20° NE 21:51:36 18° NE
SPOT 5 3.3 21:52:31 42° E 21:53:00 44° ENE 21:57:41 10° N
deb Chang Zheng 4 3.5 21:52:03 10° NNE 21:56:29 71° ESE 21:57:05 61° SSE
Cosmos 1626 Rocket 3.7 21:52:33 10° NNW 21:56:57 71° W 21:58:22 41° SSW
Cosmos 1975 3.7 21:55:16 11° SSW 21:59:01 50° W 22:03:01 10° N
Cosmos 1515 3.6 21:55:30 10° N 21:59:09 80° N 21:59:09 80° N
Cosmos 2298 Rocket 4.1 21:55:05 10° N 22:00:19 57° ENE 22:00:56 53° E
Cosmos 1459 Rocket 3.8 21:59:01 38° SSE 22:01:21 66° E 22:07:21 10° NNE
Cosmos 1743 4.3 22:06:26 27° NNE 22:06:26 27° NNE 22:08:22 10° NNE
Cosmos 1602 Rocket 4.1 22:00:31 10° NNW 22:04:54 57° W 22:06:23 37° SSW
NOSS 3-4 (A) 4.2 21:59:59 10° NW 22:06:59 61° WSW 22:10:47 30° S
NOSS 3-4 (C) 4.2 22:00:05 10° NW 22:07:07 62° WSW 22:10:52 30° S
Nimbus 7 Rocket 4.3 22:02:15 10° NNE 22:08:20 85° ESE 22:12:30 22° SSW
H-2A R/B 4.0 22:10:12 14° NE 22:10:12 14° NE 22:11:45 10° NNE
YAOGAN 6 4.4 22:12:12 25° NNE 22:12:12 25° NNE 22:13:57 10° N
Envisat 3.1 22:11:14 49° S 22:12:33 72° WSW 22:17:37 10° NNW
Cosmos 1461 3.4 22:10:05 10° NW 22:13:43 51° W 22:13:43 51° W
Cosmos 2098 Rocket 4.5 22:14:26 45° E 22:14:26 45° E 22:20:28 10° NNE
Lacrosse 5 rocket 2.3 22:10:54 10° NNW 22:13:22 38° NNW 22:13:22 38° NNW
Cosmos 1066 Rocket 4.1 22:09:13 10° N 22:14:54 89° E 22:16:06 58° S
MetOp-A 4.0 22:15:54 67° E 22:16:04 67° ENE 22:21:24 10° N
Tiangong 1 3.7 22:15:10 10° NW 22:16:48 19° NNW 22:16:48 19° NNW
Cosmos 1937 Rocket 3.8 22:16:19 10° N 22:21:02 55° NE 22:21:02 55° NE
Cosmos 1697 Rocket 2.8 22:16:07 10° SSW 22:21:45 74° WNW 22:27:25 10° NNE
Cosmos 1802 Rocket 3.9 22:20:59 49° S 22:22:52 84° E 22:29:20 10° N
OTV 4 3.6 22:23:18 10° WNW 22:23:53 15° WNW 22:23:53 15° WNW
SPOT 1/Viking Rocket 4.1 22:28:05 48° NE 22:28:05 48° NE 22:32:18 10° N
Cosmos 2150 Rocket 3.9 22:22:22 10° NNW 22:27:17 81° NNW 22:27:17 81° NNW
Cosmos 1939 Rocket 4.3 22:28:30 33° WSW 22:28:48 34° W 22:32:35 10° NNW
DELTA 2 R/B (1) 3.6 22:24:09 10° WNW 22:29:43 73° NNE 22:29:48 73° NNE
SL-08 R/B 4.4 22:30:45 66° ENE 22:30:45 66° ENE 22:36:37 10° NNE
ASTEX 1 3.6 22:28:47 10° N 22:33:04 65° N 22:33:04 65° N
Terra 4.0 22:40:15 17° NNE 22:40:15 17° NNE 22:41:40 10° NNE
Cosmos 1980 Rocket 2.4 22:44:07 67° N 22:44:07 67° N 22:49:05 10° NNE
Cosmos 2016 Rocket 3.9 22:43:28 73° SW 22:43:59 78° W 22:50:10 10° N
OAO 2 Rocket 4.2 22:39:34 10° W 22:42:57 43° W 22:42:57 43° W
ARGOS 3.6 22:49:32 55° N 22:49:32 55° N 22:53:43 10° N
Cosmos 1898 Rocket 4.4 22:50:17 10° NNW 22:54:53 44° W 22:54:53 44° W
Tsikada Rocket 4.4 23:07:20 10° N 23:12:34 61° NNW 23:12:34 61° NNW
Cosmos 2322 Rocket 4.3 23:18:34 16° NNE 23:18:34 16° NNE 23:19:42 10° NNE
Cosmos 2263 Rocket 4.2 23:12:30 10° N 23:14:41 18° NNE 23:14:41 18° NNE
Milstar 3 Cent rocket 4.0 23:12:06 10° W 23:26:27 51° SSW 23:26:27 51° SSW
USA 215 3.6 23:29:23 59° NNW 23:29:23 59° NNW 23:34:42 10° NW
Cosmos 2297 Rocket 4.4 23:25:32 10° WNW 23:28:42 15° W 23:28:59 15° WSW
Lacrosse 5 3.9 23:28:43 10° NW 23:30:48 25° NW 23:30:48 25° NW
H-2A R/B 4.2 23:50:51 22° NNW 23:50:51 22° NNW 23:52:39 10° NNW
